Location: Salillas
(41.9950°N, 0.2228°W)
Time: 08:36:40
(UTC+00:00)

USA 186 - Pass Details

Date: 29 March 2020
Orbit: 262 x 445 km, 96.9° (Epoch: 03 June)

Event Time Altitude Azimuth Distance (km) Brightness Sun altitude
Rises 10:15:11 0° 305° (NW) 2,180 5.0 44.4°
Enters shadow 10:54:52 -74° 166° (SSE) 12,601 8.9 48.5°
Exits shadow 11:20:24 -46° 46° (NE) 9,824 8.2 50.4°
Maximum altitude 19:03:51 29° 72° (ENE) 864 2.9 -8.2°
